#timestamp,LO_Frequency,Hit,StdDev 
1577703615.6,286046998.9,N
1577703635.4,286046998.7,N
1577703655.3,286046997.5,N
1577703675.1,286046996.7,N
1577703695.8,286046997.2,N
1577703715.7,286046997.4,N
1577703735.5,286046998.3,N
1577703755.4,286046999.3,N
1577703775.2,286046997.2,N
1577703795.0,286046995.7,Y
1577703795.9,286046995.7,P
1577703815.8,286046997.3,N
1577703835.6,286046995.3,P
1577703855.5,286046993.5,Y
1577703875.3,286047001.1,P
1577703895.1,286046999.9,N
1577703915.9,286046999.0,N
1577703935.7,286047001.0,N
1577703955.5,286047000.7,N
1577703975.4,286047000.7,N
1577703995.2,286047000.6,N
1577704015.1,286046999.9,N
1577704016.0,286046999.9,N
1577704035.8,286047000.3,N
1577704055.6,286046999.7,N
1577704075.5,286047002.3,N
1577704095.3,286047001.7,N
1577704115.2,286046999.8,N
1577704135.9,286047004.3,Y
1577704155.7,286047004.3,P
1577704175.6,286047003.5,N
1577704195.4,286047001.3,N
1577704215.2,286047003.5,N
1577704235.1,286047003.2,N
1577704236.0,286047003.2,N
1577704255.8,286047004.0,N
1577704275.7,286047002.5,N
1577704295.5,286047001.8,N
1577704315.3,286047000.4,N
1577704335.2,286047002.3,N
1577704355.0,286047002.3,N
1577704355.9,286047002.3,N
1577704375.7,286047002.6,N
1577704395.6,286047001.4,N
1577704415.4,286047000.2,N
1577704435.3,286046998.6,N
1577704455.1,286046998.4,N
1577704456.0,286046998.4,N
1577704475.8,286046997.0,N
1577704495.7,286046999.4,N
1577704515.5,286046998.2,N
1577704535.3,286046999.6,N
1577704555.2,286046997.3,N
1577704575.0,286046997.9,N
1577704575.9,286047011.9,Y
1577704595.8,286046995.7,P
1577704615.6,286046995.7,N
1577704635.4,286046996.3,N
1577704655.3,286046993.9,N
1577704675.1,286046996.4,N
1577704695.9,286046993.4,Y
1577704715.7,286046996.5,P
1577704735.5,286046996.7,P
1577704755.4,286046998.4,P
1577704775.2,286046999.7,N
1577704795.0,286047000.0,N
1577704796.0,286047000.0,N
1577704815.8,286047000.0,N
1577704835.6,286047004.2,N
1577704855.5,286047006.7,N
1577704875.3,286047007.7,N
1577704895.1,286047005.8,N
1577704915.9,286047004.5,N
1577704935.7,286047005.3,N
1577704955.6,286047004.9,N
1577704975.4,286047005.8,N
1577704995.2,286047004.4,N
1577705015.1,286047001.5,N
1577705016.0,286047001.5,N
1577705035.8,286047002.5,N
1577705055.6,286047002.8,N
1577705075.5,286047001.0,N
1577705095.3,286046999.7,N
1577705115.2,286047000.6,N
1577705135.9,286047000.4,N
1577705155.7,286046998.3,N
1577705175.6,286047000.1,N
1577705195.4,286047002.6,N
1577705215.2,286047004.3,N
1577705235.1,286047004.3,N
1577705236.0,286047004.3,N
1577705255.8,286047001.8,N
1577705275.7,286047002.4,N
1577705295.5,286047003.5,N
1577705315.3,286047006.0,N
1577705335.2,286047005.0,N
1577705355.0,286047003.6,N
1577705355.9,286047003.6,N
1577705375.8,286047005.9,N
1577705395.6,286047001.7,N
1577705415.4,286047003.5,N
1577705435.3,286047003.0,N
1577705455.1,286047003.6,N
1577705475.8,286047005.9,Y
1577705495.7,286047000.7,P
1577705515.5,286047000.3,N
1577705535.4,286047001.2,N
1577705555.2,286047001.1,N
1577705575.0,286046998.5,N
1577705575.9,286046998.5,N
1577705595.8,286046998.9,N
1577705615.6,286046998.3,N
1577705635.5,286047001.1,N
1577705655.3,286047001.1,N
1577705675.1,286046998.3,N
1577705695.9,286046998.9,N
1577705715.7,286046998.5,N
1577705735.5,286047000.8,N
1577705755.4,286047000.9,N
1577705775.2,286047004.4,Y
1577705795.1,286047003.3,P
1577705796.0,286047003.3,N
1577705815.8,286047005.7,P
1577705835.6,286047005.5,N
1577705855.5,286047002.9,N
1577705875.3,286047001.5,N
1577705895.1,286047002.3,N
1577705915.9,286047002.5,N
1577705935.7,286047000.1,N
1577705955.6,286046998.1,N
1577705975.4,286046998.2,N
1577705995.2,286046998.8,N
1577706015.1,286046997.1,N
1577706016.0,286046997.1,N
1577706035.8,286046999.5,N
1577706055.7,286046997.2,N
1577706075.5,286046997.4,N
1577706095.3,286046995.1,N
1577706115.2,286046996.3,N
1577706135.0,286046997.9,N
1577706135.9,286046997.9,N
1577706155.7,286046995.8,N
1577706175.6,286046994.5,N
1577706195.4,286046995.9,N
1577706215.3,286046996.6,N
1577706235.1,286046998.8,N
1577706236.0,286046998.8,N
1577706255.8,286046996.7,N
1577706275.7,286046998.6,N
1577706295.5,286046997.2,N
1577706315.4,286046997.8,N
1577706335.2,286046997.0,N
1577706355.0,286046999.4,N
1577706355.9,286046999.4,N
1577706375.8,286046998.8,N
1577706395.6,286046998.1,N
1577706415.4,286046996.8,N
1577706435.3,286046999.6,N
1577706455.1,286046998.6,N
1577706475.9,286046998.3,N
1577706495.7,286046998.2,N
1577706515.5,286046998.8,N
1577706535.4,286046998.6,N
1577706555.2,286046997.4,N
1577706575.1,286046994.9,Y
1577706576.0,286046994.9,P
1577706595.8,286046998.9,N
1577706615.6,286046996.5,N
1577706635.5,286046999.2,N
1577706655.3,286046998.4,N
1577706675.1,286047000.9,N
1577706695.9,286047001.2,N
1577706715.7,286047000.6,N
1577706735.6,286046999.3,N
1577706755.4,286046996.8,N
1577706775.2,286046999.9,N
1577706795.1,286047001.0,N
1577706796.0,286047001.0,N
1577706815.8,286046998.4,N
1577706835.6,286047000.4,N
1577706855.5,286047000.7,N
1577706875.3,286046999.0,N
1577706895.2,286047000.3,N
1577706915.9,286047002.3,N
1577706935.7,286047002.0,N
1577706955.6,286047000.2,N
1577706975.4,286047004.1,N
1577706995.3,286047003.5,N
1577707015.1,286047000.1,N
1577707016.0,286047000.1,N
1577707035.8,286047000.1,N
1577707055.7,286047002.4,N
1577707075.5,286047002.3,N
1577707095.3,286047004.4,N
1577707115.2,286047004.0,N
1577707135.0,286047003.5,N
1577707135.9,286047003.5,N
1577707155.8,286047003.0,N
1577707175.6,286047003.9,N
1577707195.4,286047003.1,N
